User: anonymous   Login
Location: Basses Si�yes
(44.0835°N, 6.2037°E)
Time: 07:30:25
(UTC+00:00)
Language:

Meteor 1-20 Rocket - Orbit

View from above orbital plane
View from above orbital plane
View from above satellite
View from above satellite

Ground track
Ground track

The orbit data is extracted from the following two-line orbital elements,

1  7575U 74099B   20156.89181709 +.00000197 +00000-0 +10115-3 0  9998
2  7575 081.2444 337.1242 0051354 078.6728 282.0207 14.11069842339212
Epoch (UTC): 04 June 2020 21:24:12
Eccentricity: 0.0051354
inclination: 81.2444°
perigee height: 818 km
apogee height: 893 km
right ascension of ascending node: 337.1242°
argument of perigee: 78.6728°
revolutions per day: 14.11069842
mean anomaly at epoch: 282.0207°
orbit number at epoch: 33921

The dashed part of the orbit path shows where the satellite is in the earth's shadow,  

DLR